Vorticity
14 14 13 13 13 14 14 15 15 16 17 17 18 18 19 19 20 20 19 19 19 19 19 19 19 18 17 16 15 15 15 15 16 16 16 14 11 8 4 2 3 5 8 12 10 9 7 7 6 4 3 2 2 1 -1 -2 -1 0 2 4 6 7 7 5 6 6 7 6 6
23 21 19 17 16 15 15 14 14 14 15 15 16 16 17 17 18 18 19 19 19 19 19 20 19 19 19 18 17 16 16 16 17 17 17 16 14 12 9 6 5 4 4 7 9 9 8 6 4 3 2 1 -1 -2 -2 -2 -2 -2 -0 2 3 3 3 3 4 5 5 4 5
27 26 25 24 23 21 20 18 17 16 15 15 15 15 16 16 17 17 18 18 18 19 19 20 19 19 19 19 19 18 17 17 19 22 23 18 17 14 12 10 7 5 4 4 7 9 9 8 6 4 4 4 2 1 2 2 1 1 0 -0 -1 -1 -0 1 2 2 2 2 3
28 28 27 27 27 26 25 24 22 21 19 18 17 16 16 16 16 17 17 18 18 18 19 19 19 19 19 19 20 20 19 18 17 24 31 29 31 23 14 11 9 7 5 4 5 7 9 10 10 10 10 9 8 7 6 6 5 4 4 2 0 -1 -1 -0 0 0 0 0 1
35 34 33 31 30 29 29 28 27 26 25 23 21 20 18 18 17 18 18 19 19 19 20 20 20 20 20 19 20 21 21 22 16 14 18 27 41 40 28 14 11 9 7 5 5 5 6 8 10 12 13 13 12 10 9 7 6 6 7 6 4 3 2 2 2 2 1 2 2
44 44 42 40 37 35 33 32 31 31 30 28 26 24 22 21 20 19 19 19 20 21 22 22 22 22 22 21 21 22 24 26 26 23 17 7 17 30 35 25 15 11 9 8 6 5 4 4 6 8 10 12 12 12 11 9 8 7 6 6 6 6 6 7 7 6 6 5 5
43 46 48 47 45 42 40 38 37 36 35 34 32 29 27 25 23 22 21 21 22 23 24 25 26 26 26 24 24 24 25 26 26 24 20 12 7 13 23 30 23 17 14 11 9 7 5 4 3 4 6 7 9 10 11 11 10 9 8 8 8 7 6 7 9 10 12 13 12
34 41 46 50 49 48 46 44 43 42 42 41 39 37 34 31 29 27 26 26 26 27 27 28 29 29 29 29 28 26 23 21 23 23 23 22 16 16 20 29 28 24 20 16 13 10 8 6 4 3 3 4 5 7 9 11 11 10 8 6 9 8 6 5 6 8 11 14 15
20 28 37 44 48 49 49 48 47 46 46 46 46 44 42 39 37 35 34 33 32 31 31 31 31 32 32 31 30 29 27 23 21 21 21 22 19 16 16 20 24 25 24 22 19 16 13 10 7 5 3 3 5 6 7 8 10 11 10 7 7 8 8 6 5 5 6 8 9
7 13 21 30 38 44 47 48 48 47 46 46 46 46 46 44 43 42 41 39 36 34 34 34 35 36 35 32 29 28 27 26 24 23 22 23 21 16 12 11 16 20 24 25 24 21 18 15 11 9 6 5 6 6 6 7 10 11 11 10 8 8 8 7 5 3 2 1 2
1 2 6 12 19 28 35 42 44 44 43 42 41 41 40 40 39 39 38 36 35 35 35 35 33 29 26 23 25 27 28 27 25 24 23 24 24 21 17 13 13 15 18 21 23 23 22 19 16 13 11 9 8 8 7 7 7 9 11 12 11 10 8 7 6 4 2 1 1
2 0 0 1 4 8 15 22 29 34 36 35 32 29 26 24 24 24 26 27 28 29 28 26 19 14 13 16 22 25 25 24 22 21 21 22 22 22 21 19 16 15 15 16 19 21 22 20 19 18 16 13 10 9 8 8 7 7 7 10 10 10 9 7 6 5 4 3 3
5 4 2 1 0 0 2 5 10 15 20 23 22 20 17 15 14 15 17 18 18 18 17 15 12 11 13 18 21 21 21 21 20 20 20 20 20 21 22 22 21 19 18 17 16 17 19 21 20 20 19 16 13 11 10 9 9 7 6 7 8 8 8 7 6 4 4 3 3
6 6 5 4 2 1 0 0 1 3 6 10 13 15 16 15 14 15 15 15 13 12 11 12 13 15 17 18 19 19 19 21 21 22 22 21 21 22 23 24 24 23 22 20 18 16 16 18 18 19 19 18 16 13 11 10 9 8 7 8 8 8 7 7 6 4 3 2 2
5 6 6 6 5 4 3 2 1 1 1 2 6 10 13 16 16 16 16 16 14 13 14 16 18 19 19 20 20 20 21 22 22 23 23 23 23 24 24 25 25 25 24 22 20 18 16 15 15 16 17 17 16 15 13 11 11 10 10 10 10 10 10 9 8 7 5 4 3
4 4 5 6 7 7 7 6 5 4 2 1 1 3 6 10 12 14 15 16 16 17 19 20 21 21 21 22 23 23 24 24 24 24 24 23 23 23 24 24 24 24 24 24 23 22 20 18 16 16 15 15 15 15 14 14 14 14 14 14 13 13 14 13 13 11 10 8 7
6 6 5 6 6 8 9 11 10 8 7 5 3 2 2 3 6 9 11 14 16 18 19 20 20 21 21 22 23 24 25 26 26 26 26 25 24 23 22 22 22 22 23 24 24 24 24 22 21 19 17 16 15 14 14 14 15 16 16 16 14 13 14 14 15 14 13 12 11
10 9 8 8 7 8 11 15 16 15 13 12 10 7 5 3 4 5 7 9 12 15 16 17 17 18 18 19 20 21 22 23 24 24 24 25 24 24 23 23 22 22 23 23 23 23 23 22 22 21 20 19 17 16 15 15 15 16 16 17 16 15 14 14 15 16 16 16 15
12 11 10 11 13 14 16 19 20 20 19 18 17 16 14 10 8 6 4 3 5 8 10 10 10 12 13 16 16 15 14 12 11 11 11 12 14 17 19 21 22 23 24 25 25 25 24 23 22 22 22 23 21 20 18 17 16 16 16 17 18 18 17 16 15 16 16 17 16
9 9 9 10 14 17 18 18 17 17 16 15 15 17 19 20 17 13 8 2 0 -0 -0 0 -1 -1 -1 1 5 5 3 3 4 5 5 5 5 6 7 9 12 14 17 20 23 25 27 28 27 25 24 24 25 24 22 20 19 19 18 18 19 19 18 17 17 16 16 15 15
7 8 8 8 10 10 10 7 6 7 7 6 5 9 15 20 21 20 17 13 9 6 3 1 -2 -5 -10 -14 -15 -12 -7 -2 -0 2 6 12 13 10 8 7 10 11 12 13 14 17 20 23 24 24 24 24 24 24 23 22 21 20 20 19 20 19 19 18 18 17 15 13 13
7 8 10 11 11 9 6 1 0 2 3 1 -0 4 10 16 17 19 21 24 26 25 23 18 13 9 6 1 -6 -9 -7 -3 -3 -3 -0 8 15 16 15 13 13 12 11 10 8 7 8 10 13 16 17 17 18 18 18 18 18 18 17 17 17 17 18 18 18 18 18 17 16
6 7 9 11 13 13 12 6 2 2 3 -1 0 5 12 15 16 18 20 23 26 29 32 32 30 28 27 26 13 3 -1 3 3 0 0 7 13 15 15 14 12 10 9 7 5 4 4 6 6 7 9 11 12 12 13 14 13 13 12 12 12 13 15 17 19 21 22 24 25
7 6 6 7 9 11 13 12 7 5 3 0 3 8 11 14 15 16 16 15 15 16 19 24 26 27 25 20 7 1 2 12 13 10 6 8 13 16 16 16 16 15 14 12 9 8 8 9 10 10 10 8 9 10 10 11 12 12 11 9 8 8 10 13 17 19 21 22 24
9 7 6 5 5 6 8 10 8 6 3 3 5 6 7 8 9 10 11 10 10 10 11 12 12 12 10 7 -0 -8 -11 -8 2 7 9 7 7 8 10 11 13 16 17 16 13 10 9 10 10 11 11 12 11 8 6 6 7 10 13 16 14 11 10 11 13 16 17 16 19
11 10 9 8 7 7 7 7 8 7 7 7 7 7 6 6 5 4 4 5 6 9 11 12 13 14 16 16 15 10 2 -8 -8 -4 2 5 5 4 3 2 4 7 10 13 13 12 11 10 10 10 11 12 13 12 10 6 3 2 4 8 14 16 16 15 15 16 15 13 8
11 11 10 10 10 10 10 10 11 11 12 12 11 12 12 12 11 9 6 4 4 4 6 8 10 13 17 22 26 26 22 14 5 -2 -5 -5 -2 -0 1 3 4 6 8 12 15 15 14 12 10 11 13 16 21 25 26 24 16 9 2 -1 1 5 10 14 15 14 11 7 3
14 14 14 14 14 14 14 14 14 15 15 14 14 15 16 17 18 18 18 16 13 11 10 8 8 7 7 9 12 14 16 15 12 10 8 7 6 6 7 8 9 10 10 11 12 12 12 12 12 13 14 15 18 22 28 33 34 31 23 14 6 2 0 4 8 9 6 1 -1
14 14 15 16 16 16 17 17 17 17 17 16 16 16 16 17 18 19 20 20 20 20 19 19 18 17 16 14 14 14 15 17 20 22 23 22 21 19 18 16 14 13 12 11 10 10 10 10 11 11 12 12 11 11 13 16 22 28 31 31 24 15 7 2 3 5 7 7 5
11 11 11 11 12 12 12 12 12 12 12 12 12 12 12 12 12 13 13 13 13 14 14 14 14 14 15 16 17 18 19 20 22 23 22 21 19 17 16 14 13 12 11 11 11 10 10 10 10 10 11 11 12 12 12 13 14 16 20 24 26 25 21 15 9 7 7 10 11
8 8 8 7 7 7 7 7 7 7 6 6 6 6 5 5 5 5 5 6 6 6 6 7 7 7 7 8 8 8 8 8 8 8 8 8 8 8 8 8 8 8 8 7 7 7 6 6 5 5 5 5 6 6 7 8 9 10 12 14 16 19 21 20 18 15 13 12 11
6 6 6 6 5 5 5 5 5 5 5 4 4 4 4 4 4 4 4 4 4 4 4 4 4 4 4 4 4 4 3 3 3 3 3 3 4 4 4 4 4 4 4 4 3 3 3 3 3 3 3 3 3 3 3 4 4 4 5 6 7 9 10 12 13 14 14 13 13
6 5 5 5 5 5 5 5 5 5 4 4 4 4 4 4 4 4 4 4 4 4 4 4 3 3 3 3 3 3 3 3 3 3 3 3 3 3 3 3 2 2 2 2 2 2 2 2 2 2 2 2 2 2 2 2 2 2 2 3 3 3 4 5 6 7 8 8 9
6 5 5 5 5 5 5 5 5 5 4 4 4 4 4 4 4 4 4 3 3 3 3 3 3 3 2 2 2 2 2 2 2 2 2 2 2 2 2 2 2 2 2 2 2 2 2 2 2 2 2 2 2 2 2 2 2 2 2 2 2 2 2 2 3 3 3 4 4
5 5 5 5 5 5 5 5 4 4 4 4 4 4 4 3 3 3 3 3 2 2 2 2 2 2 2 2 2 2 2 2 2 2 2 2 2 2 2 2 2 2 2 2 2 2 2 2 2 2 2 2 2 2 2 2 2 2 2 2 2 2 2 2 2 2 2 2 3
5 5 5 5 4 4 4 4 4 4 4 4 3 3 3 3 3 2 2 2 2 2 2 2 2 2 2 2 2 2 2 2 2 2 2 2 2 2 2 2 2 2 2 2 2 2 2 2 2 2 2 2 2 2 2 2 2 2 2 2 2 2 2 2 2 2 3 3 3
4 4 4 4 4 4 4 4 3 3 3 3 3 3 3 2 2 2 2 2 2 2 2 2 2 2 2 2 2 2 2 2 2 2 2 2 2 2 2 2 3 3 3 3 3 3 3 3 2 2 2 2 2 2 2 2 2 2 2 2 2 2 2 2 2 2 2 3 3
4 4 4 4 4 4 3 3 3 3 3 3 2 2 2 2 2 2 1 1 1 1 1 1 1 1 1 1 2 2 2 2 2 2 2 2 2 2 3 3 3 3 3 3 3 3 3 3 3 3 3 3 3 3 3 3 3 3 3 3 3 2 2 2 2 2 2 2 2
4 4 4 3 3 3 3 3 3 2 2 2 2 2 1 1 1 1 1 0 0 1 1 1 1 1 1 1 1 1 2 2 2 2 2 2 2 2 2 3 3 3 4 4 4 4 4 4 4 5 5 5 4 4 4 4 4 4 4 4 4 4 4 3 3 3 2 2 2
4 3 3 3 3 2 2 2 2 2 1 1 1 1 0 0 0 0 0 0 0 0 0 0 0 1 1 1 1 1 2 2 2 2 2 2 3 3 4 4 4 5 5 5 6 6 6 6 6 6 6 6 6 6 6 6 6 6 6 6 5 5 5 5 4 4 4 3 3
3 3 3 2 2 2 1 1 1 0 0 0 0 -0 -0 -0 -0 -0 -0 0 0 0 0 0 1 1 1 2 2 2 3 3 4 4 4 5 5 6 6 6 7 7 8 8 8 8 8 8 8 8 8 8 8 8 8 8 7 7 7 7 6 6 6 6 5 5 4 4 4
Height
5608 5608 5608 5608 5609 5609 5610 5610 5611 5612 5613 5615 5616 5617 5619 5621 5622 5624 5625 5627 5628 5630 5632 5634 5636 5637 5639 5642 5645 5647 5649 5651 5653 5655 5657 5660 5662 5665 5667 5669 5672 5674 5676 5678 5680 5682 5683 5685 5688 5690 5690 5691 5692 5695 5697 5699 5700 5701 5702 5703 5703 5705 5706 5706 5707 5708 5708 5709 5709
5605 5605 5605 5605 5605 5605 5606 5606 5607 5608 5609 5610 5612 5613 5615 5617 5618 5619 5621 5622 5624 5625 5627 5629 5631 5632 5635 5637 5640 5643 5645 5646 5648 5650 5652 5655 5658 5660 5662 5665 5667 5669 5671 5672 5674 5677 5679 5682 5684 5685 5687 5687 5688 5690 5691 5692 5695 5697 5697 5699 5700 5700 5701 5701 5702 5702 5703 5705 5706
5602 5601 5601 5601 5601 5601 5602 5602 5602 5604 5605 5606 5608 5609 5611 5612 5614 5615 5617 5618 5620 5621 5623 5624 5626 5628 5630 5632 5635 5637 5640 5642 5644 5646 5648 5651 5653 5656 5658 5660 5662 5665 5667 5668 5670 5672 5674 5677 5678 5680 5682 5682 5684 5685 5686 5687 5689 5691 5692 5693 5695 5697 5698 5699 5698 5698 5700 5701 5703
5598 5598 5597 5597 5597 5597 5597 5597 5598 5599 5601 5602 5604 5605 5607 5608 5610 5612 5613 5615 5616 5617 5619 5620 5622 5624 5626 5628 5630 5633 5635 5638 5640 5642 5644 5646 5648 5651 5653 5656 5658 5660 5662 5664 5666 5668 5670 5672 5674 5676 5677 5678 5679 5680 5681 5683 5685 5686 5687 5688 5690 5692 5693 5694 5694 5696 5697 5698 5698
5596 5595 5594 5593 5593 5593 5593 5593 5594 5595 5596 5598 5600 5601 5603 5605 5607 5608 5610 5612 5613 5614 5616 5617 5619 5621 5623 5625 5627 5629 5631 5634 5636 5638 5641 5643 5644 5646 5649 5651 5653 5655 5657 5659 5662 5664 5666 5667 5669 5671 5672 5674 5675 5677 5679 5680 5682 5683 5684 5684 5686 5687 5689 5690 5691 5692 5692 5694 5694
5594 5592 5591 5590 5590 5590 5590 5590 5590 5591 5592 5594 5596 5597 5599 5601 5603 5605 5607 5609 5610 5612 5613 5615 5617 5618 5619 5622 5624 5626 5628 5630 5633 5635 5638 5640 5641 5643 5645 5647 5650 5651 5653 5656 5657 5660 5662 5663 5665 5666 5667 5669 5671 5672 5674 5676 5677 5679 5681 5682 5683 5684 5684 5685 5686 5687 5688 5688 5689
5592 5591 5590 5588 5587 5587 5587 5587 5587 5588 5589 5590 5592 5594 5596 5597 5600 5602 5604 5606 5607 5609 5611 5612 5614 5616 5617 5620 5622 5624 5626 5628 5630 5633 5635 5637 5638 5639 5640 5642 5644 5647 5649 5652 5654 5656 5657 5659 5661 5662 5663 5665 5666 5667 5669 5671 5673 5675 5677 5679 5681 5681 5681 5681 5682 5683 5683 5684 5685
5592 5590 5589 5587 5586 5585 5585 5585 5585 5586 5587 5588 5589 5591 5593 5595 5597 5599 5601 5603 5605 5607 5608 5610 5612 5613 5615 5617 5620 5622 5624 5626 5628 5630 5632 5632 5634 5636 5637 5639 5642 5644 5646 5648 5650 5652 5653 5655 5657 5659 5660 5662 5663 5665 5667 5668 5670 5672 5674 5676 5676 5677 5678 5680 5680 5681 5681 5682 5681
5592 5591 5589 5587 5586 5585 5584 5584 5584 5584 5585 5587 5588 5590 5592 5593 5595 5597 5599 5601 5602 5604 5606 5608 5610 5612 5614 5616 5618 5620 5622 5624 5626 5627 5628 5630 5632 5634 5635 5637 5639 5641 5643 5645 5647 5648 5650 5652 5654 5655 5657 5658 5660 5662 5663 5665 5666 5668 5670 5670 5669 5670 5671 5672 5674 5676 5677 5678 5679
5593 5592 5590 5589 5587 5586 5585 5585 5584 5585 5585 5586 5587 5589 5590 5592 5594 5596 5597 5599 5601 5603 5605 5607 5609 5611 5612 5614 5615 5617 5619 5622 5623 5624 5626 5628 5630 5632 5633 5635 5637 5639 5640 5642 5643 5645 5647 5649 5651 5652 5654 5655 5657 5658 5660 5661 5663 5665 5665 5665 5665 5666 5667 5668 5670 5671 5671 5672 5674
5593 5593 5592 5591 5589 5588 5587 5587 5586 5586 5586 5587 5588 5589 5590 5592 5593 5595 5597 5598 5600 5602 5604 5606 5609 5611 5613 5613 5614 5616 5617 5619 5621 5622 5624 5626 5627 5629 5631 5633 5635 5636 5638 5639 5641 5642 5644 5646 5649 5650 5652 5652 5653 5655 5657 5658 5659 5660 5660 5661 5662 5662 5664 5665 5667 5668 5668 5669 5669
5594 5593 5593 5592 5591 5590 5590 5589 5589 5589 5588 5588 5589 5589 5590 5592 5593 5595 5596 5598 5600 5602 5603 5606 5610 5612 5612 5612 5613 5614 5616 5617 5619 5620 5622 5624 5626 5627 5629 5631 5632 5634 5636 5637 5638 5640 5642 5643 5645 5647 5648 5649 5650 5652 5653 5654 5656 5656 5657 5657 5658 5659 5660 5661 5663 5664 5665 5665 5665
5595 5594 5594 5593 5592 5592 5592 5592 5591 5591 5591 5590 5590 5591 5592 5592 5594 5595 5597 5598 5600 5602 5603 5606 5608 5609 5610 5610 5611 5612 5614 5616 5617 5618 5620 5622 5624 5625 5627 5628 5630 5632 5633 5635 5637 5638 5639 5641 5642 5643 5645 5646 5648 5649 5650 5651 5652 5653 5653 5654 5655 5656 5657 5657 5659 5659 5660 5661 5661
5596 5595 5595 5594 5594 5594 5593 5593 5593 5593 5593 5592 5592 5593 5593 5595 5596 5597 5598 5599 5601 5602 5603 5605 5606 5607 5607 5608 5610 5611 5612 5614 5615 5617 5618 5620 5621 5623 5625 5626 5628 5629 5631 5633 5634 5636 5637 5638 5639 5641 5642 5643 5644 5646 5647 5648 5649 5650 5650 5651 5652 5653 5653 5653 5654 5655 5656 5657 5657
5597 5597 5597 5596 5596 5595 5595 5595 5595 5595 5595 5595 5595 5595 5596 5597 5597 5598 5599 5600 5601 5603 5604 5605 5605 5606 5607 5608 5609 5610 5612 5613 5614 5615 5617 5618 5619 5621 5622 5623 5625 5627 5628 5630 5632 5633 5634 5636 5637 5637 5639 5640 5641 5642 5643 5645 5645 5646 5647 5648 5649 5649 5650 5650 5650 5651 5652 5653 5653
5598 5598 5598 5597 5597 5597 5597 5596 5596 5596 5596 5596 5597 5597 5598 5598 5599 5600 5600 5601 5602 5603 5604 5604 5605 5606 5607 5608 5609 5610 5611 5612 5613 5614 5616 5617 5618 5619 5620 5621 5622 5623 5625 5627 5628 5630 5632 5632 5633 5634 5635 5637 5637 5639 5640 5641 5642 5643 5644 5645 5645 5645 5645 5646 5647 5647 5648 5648 5649
5599 5599 5599 5599 5598 5598 5598 5598 5597 5597 5597 5598 5598 5598 5599 5600 5600 5601 5601 5602 5602 5603 5604 5605 5605 5606 5607 5608 5609 5610 5611 5612 5613 5614 5615 5616 5617 5617 5618 5619 5620 5621 5622 5623 5625 5626 5627 5629 5630 5631 5632 5633 5634 5635 5636 5637 5638 5639 5640 5641 5641 5641 5642 5642 5642 5643 5644 5644 5645
5600 5600 5599 5599 5599 5599 5599 5599 5599 5599 5599 5599 5599 5600 5600 5601 5601 5602 5602 5602 5603 5603 5604 5605 5605 5606 5607 5608 5609 5609 5610 5611 5612 5613 5614 5615 5616 5616 5617 5618 5619 5619 5620 5621 5622 5622 5623 5625 5626 5627 5628 5629 5630 5631 5632 5633 5634 5635 5636 5636 5637 5638 5638 5638 5638 5639 5639 5640 5641
5600 5600 5600 5599 5599 5599 5600 5600 5600 5600 5600 5600 5600 5601 5601 5602 5602 5602 5603 5603 5603 5604 5605 5605 5606 5607 5607 5608 5608 5609 5610 5610 5611 5612 5612 5613 5614 5615 5616 5617 5617 5618 5618 5619 5620 5620 5621 5622 5623 5624 5625 5626 5627 5627 5628 5629 5630 5630 5631 5632 5633 5634 5634 5634 5634 5635 5635 5636 5636
5601 5600 5600 5599 5599 5600 5600 5600 5600 5601 5601 5601 5601 5602 5602 5602 5602 5603 5603 5603 5604 5605 5605 5606 5606 5607 5607 5608 5608 5609 5610 5610 5611 5611 5612 5613 5614 5614 5615 5616 5617 5617 5618 5618 5619 5619 5620 5620 5621 5622 5622 5623 5624 5624 5625 5626 5626 5626 5627 5627 5628 5629 5629 5630 5630 5630 5631 5631 5632
5601 5601 5600 5600 5600 5600 5600 5601 5601 5600 5600 5600 5601 5601 5602 5602 5602 5602 5603 5603 5604 5605 5605 5606 5607 5607 5607 5608 5609 5610 5610 5611 5612 5612 5613 5614 5615 5616 5616 5617 5617 5618 5618 5619 5619 5619 5620 5619 5620 5620 5620 5620 5621 5621 5622 5622 5623 5623 5623 5624 5624 5625 5625 5626 5626 5625 5626 5626 5626
5602 5602 5601 5601 5601 5601 5601 5601 5601 5600 5600 5601 5601 5602 5602 5602 5602 5603 5603 5604 5604 5605 5605 5605 5606 5607 5607 5608 5609 5610 5611 5612 5613 5613 5614 5615 5616 5616 5617 5617 5617 5617 5618 5618 5618 5619 5619 5619 5619 5619 5619 5619 5619 5619 5619 5619 5620 5620 5620 5620 5620 5621 5621 5622 5622 5621 5621 5622 5622
5603 5603 5602 5602 5602 5602 5602 5602 5602 5602 5602 5603 5604 5604 5603 5603 5603 5604 5604 5604 5604 5605 5605 5606 5606 5607 5608 5609 5610 5611 5612 5612 5612 5613 5613 5614 5614 5615 5615 5615 5616 5616 5616 5616 5616 5616 5616 5617 5617 5617 5617 5617 5617 5617 5617 5617 5617 5617 5617 5617 5617 5617 5617 5617 5617 5617 5617 5617 5618
5604 5604 5604 5603 5603 5603 5603 5603 5603 5604 5605 5605 5605 5605 5605 5604 5604 5604 5605 5605 5605 5605 5606 5606 5607 5607 5608 5609 5610 5611 5612 5612 5612 5612 5612 5612 5613 5613 5613 5613 5613 5614 5614 5614 5614 5614 5614 5614 5614 5614 5614 5614 5614 5614 5614 5614 5614 5614 5614 5614 5614 5614 5614 5614 5614 5614 5615 5615 5616
5605 5604 5604 5604 5604 5604 5604 5605 5605 5605 5606 5605 5605 5605 5605 5605 5605 5605 5605 5605 5606 5606 5606 5607 5607 5608 5609 5609 5610 5610 5611 5611 5612 5612 5612 5612 5612 5612 5612 5612 5612 5612 5612 5612 5612 5612 5612 5611 5611 5611 5611 5612 5612 5612 5611 5611 5611 5611 5611 5611 5611 5611 5611 5610 5611 5611 5611 5612 5612
5605 5605 5605 5605 5605 5605 5605 5605 5605 5605 5605 5605 5605 5605 5605 5605 5605 5605 5606 5606 5606 5606 5607 5607 5607 5608 5608 5609 5609 5610 5610 5611 5611 5611 5611 5611 5611 5611 5611 5611 5611 5611 5611 5611 5610 5610 5610 5609 5609 5609 5609 5609 5609 5609 5609 5608 5607 5607 5607 5606 5606 5607 5607 5606 5606 5606 5606 5606 5606
5605 5605 5605 5605 5605 5605 5605 5605 5605 5605 5605 5605 5605 5605 5605 5605 5605 5606 5606 5606 5607 5607 5607 5607 5607 5608 5608 5608 5609 5609 5609 5610 5610 5610 5610 5610 5610 5610 5609 5609 5609 5609 5609 5609 5608 5608 5608 5607 5607 5607 5607 5606 5606 5606 5606 5605 5605 5604 5603 5602 5602 5602 5602 5602 5602 5602 5601 5600 5600
5605 5605 5605 5605 5605 5605 5605 5605 5605 5605 5605 5605 5605 5605 5605 5605 5605 5606 5606 5606 5607 5607 5607 5607 5607 5608 5608 5608 5608 5609 5609 5609 5609 5609 5609 5609 5608 5608 5608 5607 5607 5607 5607 5606 5606 5606 5605 5605 5604 5604 5603 5603 5602 5602 5602 5602 5602 5601 5601 5600 5599 5598 5598 5597 5597 5597 5597 5597 5596
5606 5606 5606 5606 5606 5605 5605 5605 5605 5605 5605 5605 5605 5605 5605 5605 5605 5605 5606 5606 5606 5606 5607 5607 5607 5607 5607 5607 5607 5608 5608 5608 5608 5608 5607 5607 5607 5607 5607 5606 5605 5605 5605 5604 5603 5603 5602 5602 5602 5601 5601 5600 5599 5599 5599 5598 5598 5598 5598 5597 5597 5596 5595 5594 5593 5592 5592 5592 5592
5606 5606 5606 5606 5606 5606 5606 5606 5606 5606 5606 5606 5606 5606 5606 5606 5606 5606 5606 5606 5606 5606 5606 5606 5606 5606 5606 5607 5607 5607 5607 5607 5607 5606 5606 5606 5606 5605 5605 5604 5604 5603 5602 5602 5601 5601 5600 5599 5599 5598 5597 5597 5597 5596 5596 5595 5595 5594 5594 5594 5593 5593 5592 5591 5590 5588 5587 5587 5586
5607 5607 5607 5607 5607 5606 5606 5606 5606 5606 5606 5606 5606 5606 5606 5606 5606 5606 5606 5606 5606 5606 5606 5606 5606 5606 5606 5606 5606 5606 5606 5605 5605 5605 5605 5604 5604 5604 5603 5602 5602 5601 5601 5600 5599 5598 5597 5597 5596 5595 5594 5594 5593 5592 5592 5592 5591 5591 5590 5590 5589 5589 5588 5587 5587 5586 5584 5583 5582
5607 5607 5607 5607 5607 5607 5607 5606 5606 5606 5606 5606 5606 5606 5606 5606 5606 5605 5605 5605 5605 5605 5605 5605 5605 5605 5605 5605 5605 5605 5604 5604 5604 5604 5603 5603 5602 5602 5601 5601 5600 5599 5599 5598 5597 5596 5595 5594 5593 5592 5591 5591 5590 5589 5588 5588 5587 5587 5587 5586 5585 5585 5584 5583 5582 5582 5581 5580 5579
5608 5608 5607 5607 5607 5607 5607 5607 5607 5606 5606 5606 5606 5606 5606 5606 5606 5605 5605 5605 5605 5605 5605 5605 5605 5604 5604 5604 5604 5603 5603 5603 5602 5602 5602 5601 5601 5600 5599 5598 5598 5597 5596 5596 5595 5594 5593 5592 5590 5589 5588 5587 5587 5586 5585 5584 5583 5583 5582 5582 5581 5580 5579 5578 5578 5577 5576 5575 5574
5608 5608 5608 5608 5608 5607 5607 5607 5607 5607 5607 5606 5606 5606 5606 5606 5606 5605 5605 5605 5605 5604 5604 5604 5604 5603 5603 5603 5602 5602 5602 5601 5601 5600 5600 5599 5598 5597 5597 5596 5595 5594 5593 5592 5592 5591 5590 5589 5587 5586 5585 5584 5583 5582 5581 5580 5579 5578 5577 5577 5576 5575 5574 5573 5572 5572 5571 5570 5569
5609 5609 5609 5608 5608 5608 5608 5607 5607 5607 5607 5607 5607 5606 5606 5606 5605 5605 5605 5604 5604 5604 5603 5603 5602 5602 5602 5601 5601 5600 5600 5599 5598 5598 5597 5596 5596 5595 5594 5593 5592 5591 5590 5589 5588 5587 5586 5585 5584 5582 5581 5580 5579 5578 5577 5576 5575 5574 5573 5572 5571 5570 5568 5567 5567 5566 5565 5564 5563
5609 5609 5609 5609 5608 5608 5608 5607 5607 5607 5607 5607 5606 5606 5606 5605 5605 5604 5604 5603 5603 5603 5602 5602 5601 5601 5600 5600 5599 5598 5598 5597 5596 5595 5595 5594 5593 5592 5591 5590 5589 5587 5587 5585 5584 5583 5582 5581 5580 5578 5577 5575 5574 5573 5572 5571 5570 5568 5567 5566 5565 5564 5562 5562 5560 5559 5558 5557 5557
5609 5609 5609 5608 5608 5608 5607 5607 5607 5607 5606 5606 5606 5605 5605 5604 5604 5603 5603 5602 5602 5602 5601 5600 5600 5599 5598 5598 5597 5596 5595 5595 5594 5593 5592 5591 5590 5589 5588 5587 5585 5584 5583 5582 5581 5579 5578 5577 5576 5574 5572 5571 5570 5568 5567 5566 5564 5563 5562 5560 5559 5557 5556 5555 5553 5552 5551 5550 5549
5609 5609 5608 5608 5608 5607 5607 5607 5606 5606 5605 5605 5604 5604 5603 5603 5602 5602 5601 5601 5600 5600 5599 5598 5598 5597 5596 5595 5595 5594 5593 5592 5591 5590 5589 5588 5587 5586 5585 5583 5582 5581 5579 5578 5577 5575 5574 5573 5571 5570 5568 5567 5565 5564 5562 5561 5559 5558 5556 5555 5553 5551 5549 5548 5547 5545 5544 5542 5542
5608 5608 5608 5607 5607 5607 5606 5606 5605 5605 5604 5604 5603 5603 5602 5602 5601 5600 5600 5599 5598 5598 5597 5597 5596 5595 5594 5593 5592 5591 5590 5589 5588 5587 5586 5585 5584 5582 5581 5580 5578 5577 5576 5574 5573 5571 5570 5568 5567 5565 5563 5562 5560 5559 5557 5556 5554 5552 5551 5549 5547 5545 5543 5542 5540 5538 5537 5535 5534
5608 5607 5607 5607 5607 5606 5606 5605 5604 5604 5603 5603 5602 5602 5601 5600 5599 5599 5598 5597 5597 5596 5595 5594 5593 5592 5592 5590 5589 5588 5587 5586 5585 5584 5582 5581 5580 5578 5577 5576 5574 5572 5571 5569 5568 5566 5564 5563 5561 5559 5558 5556 5554 5553 5551 5550 5548 5546 5544 5542 5541 5539 5537 5535 5533 5532 5530 5528 5527
5607 5607 5607 5606 5606 5605 5605 5604 5604 5603 5602 5602 5601 5600 5599 5599 5598 5597 5596 5595 5594 5594 5593 5592 5591 5590 5589 5587 5586 5585 5584 5582 5581 5580 5578 5577 5575 5574 5572 5570 5569 5567 5565 5564 5562 5560 5558 5557 5555 5553 5551 5549 5547 5546 5544 5542 5541 5539 5537 5535 5533 5532 5530 5527 5526 5524 5522 5520 5519